| time (UTC) | temp C | wind direction | speed KPH | gust KPH | rain 1hr cm | rain 24hr cm | rain mn cm | humidity % | barometer mb |
| 20260508065727 | 19 | 32 | 0.0 | 0.0 | 0.00 | 0.00 | 0.00 | 76 | 1014.2 |
| 20260508065225 | 19 | 41 | 0.0 | 0.0 | 0.00 | 0.00 | 0.00 | 76 | 1014.3 |
| 20260508064723 | 19 | 41 | 0.0 | 0.0 | 0.00 | 0.00 | 0.00 | 76 | 1014.2 |
| 20260508064221 | 19 | 45 | 0.0 | 0.0 | 0.00 | 0.00 | 0.00 | 75 | 1014.1 |
| 20260508063718 | 20 | 45 | 0.0 | 0.0 | 0.00 | 0.00 | 0.00 | 75 | 1014.2 |
| 20260508063216 | 20 | 44 | 0.0 | 1.6 | 0.00 | 0.00 | 0.00 | 74 | 1014.1 |
| 20260508062713 | 20 | 53 | 0.0 | 0.0 | 0.00 | 0.00 | 0.00 | 74 | 1014.1 |
| 20260508062210 | 20 | 72 | 0.0 | 1.6 | 0.00 | 0.00 | 0.00 | 73 | 1014.0 |
| 20260508061707 | 20 | 61 | 0.0 | 1.6 | 0.00 | 0.00 | 0.00 | 73 | 1014.0 |
| 20260508061205 | 20 | 42 | 0.0 | 0.0 | 0.00 | 0.00 | 0.00 | 72 | 1013.8 |
| 20260508060702 | 20 | 39 | 0.0 | 0.0 | 0.00 | 0.00 | 0.00 | 72 | 1013.9 |
| 20260508060158 | 20 | 279 | 0.0 | 0.0 | 0.00 | 0.00 | 0.00 | 72 | 1014.0 |
| 20260508055654 | 20 | 250 | 3.2 | 3.2 | 0.00 | 0.00 | 0.00 | 71 | 1014.1 |
| 20260508055151 | 20 | 350 | 0.0 | 0.0 | 0.00 | 0.00 | 0.00 | 71 | 1014.0 |
| 20260508054647 | 20 | 346 | 0.0 | 0.0 | 0.00 | 0.00 | 0.00 | 71 | 1013.9 |
| 20260508054145 | 20 | 294 | 0.0 | 0.0 | 0.00 | 0.00 | 0.00 | 70 | 1014.0 |
| 20260508053642 | 21 | 317 | 0.0 | 0.0 | 0.00 | 0.00 | 0.00 | 70 | 1013.9 |
| 20260508053139 | 21 | 231 | 0.0 | 0.0 | 0.00 | 0.00 | 0.00 | 70 | 1014.0 |
| 20260508052637 | 21 | 231 | 1.6 | 1.6 | 0.00 | 0.00 | 0.00 | 70 | 1014.0 |
| 20260508052134 | 21 | 327 | 0.0 | 0.0 | 0.00 | 0.00 | 0.00 | 70 | 1013.9 |
| 20260508051629 | 21 | 329 | 0.0 | 1.6 | 0.00 | 0.00 | 0.00 | 69 | 1013.9 |
| 20260508051125 | 21 | 1 | 0.0 | 0.0 | 0.00 | 0.00 | 0.00 | 69 | 1013.9 |
| 20260508050621 | 21 | 40 | 0.0 | 0.0 | 0.00 | 0.00 | 0.00 | 68 | 1013.8 |
| 20260508050119 | 21 | 37 | 0.0 | 0.0 | 0.00 | 0.00 | 0.00 | 68 | 1014.1 |
| 20260508045615 | 21 | 351 | 0.0 | 1.6 | 0.00 | 0.00 | 0.00 | 68 | 1013.9 |
| 20260508045113 | 21 | 40 | 0.0 | 0.0 | 0.00 | 0.00 | 0.00 | 68 | 1014.1 |
| 20260508044610 | 21 | 19 | 0.0 | 0.0 | 0.00 | 0.00 | 0.00 | 68 | 1014.0 |
| 20260508044106 | 21 | 62 | 0.0 | 0.0 | 0.00 | 0.00 | 0.00 | 68 | 1014.1 |
| 20260508043603 | 21 | 62 | 0.0 | 0.0 | 0.00 | 0.00 | 0.00 | 67 | 1013.9 |
| 20260508043100 | 22 | 68 | 0.0 | 0.0 | 0.00 | 0.00 | 0.00 | 67 | 1013.9 |
| 20260508042557 | 22 | 22 | 0.0 | 0.0 | 0.00 | 0.00 | 0.00 | 66 | 1013.9 |
| 20260508042054 | 22 | 55 | 0.0 | 0.0 | 0.00 | 0.00 | 0.00 | 66 | 1013.8 |
| 20260508041550 | 22 | 105 | 1.6 | 1.6 | 0.00 | 0.00 | 0.00 | 66 | 1013.7 |
| 20260508041047 | 22 | 240 | 0.0 | 0.0 | 0.00 | 0.00 | 0.00 | 65 | 1013.6 |
| 20260508040544 | 23 | 241 | 1.6 | 1.6 | 0.00 | 0.00 | 0.00 | 64 | 1013.5 |
| 20260508040042 | 23 | 243 | 1.6 | 1.6 | 0.00 | 0.00 | 0.00 | 64 | 1013.4 |
| 20260508035538 | 23 | 247 | 1.6 | 1.6 | 0.00 | 0.00 | 0.00 | 63 | 1013.4 |
| 20260508035035 | 23 | 244 | 3.2 | 3.2 | 0.00 | 0.00 | 0.00 | 62 | 1013.4 |
| 20260508034532 | 23 | 237 | 1.6 | 3.2 | 0.00 | 0.00 | 0.00 | 62 | 1013.2 |
| 20260508034029 | 23 | 237 | 1.6 | 1.6 | 0.00 | 0.00 | 0.00 | 61 | 1013.3 |
| 20260508033527 | 23 | 257 | 1.6 | 1.6 | 0.00 | 0.00 | 0.00 | 61 | 1013.3 |
| 20260508033025 | 23 | 241 | 0.0 | 0.0 | 0.00 | 0.00 | 0.00 | 60 | 1013.3 |
| 20260508032521 | 24 | 240 | 3.2 | 3.2 | 0.00 | 0.00 | 0.00 | 59 | 1013.0 |
| 20260508032019 | 24 | 237 | 1.6 | 3.2 | 0.00 | 0.00 | 0.00 | 59 | 1013.1 |
| 20260508031516 | 25 | 252 | 0.0 | 1.6 | 0.00 | 0.00 | 0.00 | 58 | 1013.1 |
| 20260508031011 | 25 | 238 | 0.0 | 0.0 | 0.00 | 0.00 | 0.00 | 58 | 1012.9 |
| 20260508030509 | 25 | 269 | 0.0 | 0.0 | 0.00 | 0.00 | 0.00 | 57 | 1013.0 |
| 20260508030007 | 25 | 271 | 0.0 | 0.0 | 0.00 | 0.00 | 0.00 | 56 | 1012.7 |
| 20260508025502 | 25 | 273 | 0.0 | 0.0 | 0.00 | 0.00 | 0.00 | 56 | 1012.7 |
| 20260508024959 | 26 | 269 | 0.0 | 0.0 | 0.00 | 0.00 | 0.00 | 54 | 1012.8 |
| 20260508024455 | 26 | 264 | 1.6 | 1.6 | 0.00 | 0.00 | 0.00 | 53 | 1012.6 |
| 20260508023952 | 26 | 305 | 0.0 | 0.0 | 0.00 | 0.00 | 0.00 | 52 | 1012.6 |
| 20260508023449 | 27 | 244 | 1.6 | 3.2 | 0.00 | 0.00 | 0.00 | 51 | 1012.6 |
| 20260508022946 | 27 | 266 | 1.6 | 1.6 | 0.00 | 0.00 | 0.00 | 50 | 1012.5 |
| 20260508022442 | 27 | 269 | 1.6 | 1.6 | 0.00 | 0.00 | 0.00 | 49 | 1012.5 |
| 20260508021939 | 27 | 269 | 3.2 | 3.2 | 0.00 | 0.00 | 0.00 | 48 | 1012.4 |
| 20260508021435 | 28 | 309 | 4.8 | 6.4 | 0.00 | 0.00 | 0.00 | 47 | 1012.6 |
| 20260508020931 | 28 | 250 | 4.8 | 6.4 | 0.00 | 0.00 | 0.00 | 46 | 1012.6 |
| 20260508020429 | 28 | 284 | 8.0 | 11.3 | 0.00 | 0.00 | 0.00 | 46 | 1012.6 |
| 20260508015926 | 28 | 277 | 6.4 | 6.4 | 0.00 | 0.00 | 0.00 | 45 | 1012.6 |
| 20260508015424 | 28 | 252 | 9.7 | 11.3 | 0.00 | 0.00 | 0.00 | 44 | 1012.5 |
| 20260508014920 | 28 | 274 | 9.7 | 11.3 | 0.00 | 0.00 | 0.00 | 44 | 1012.5 |
| 20260508014417 | 28 | 264 | 3.2 | 3.2 | 0.00 | 0.00 | 0.00 | 44 | 1012.4 |
| 20260508013912 | 29 | 256 | 6.4 | 8.0 | 0.00 | 0.00 | 0.00 | 43 | 1012.4 |
| 20260508013408 | 29 | 262 | 1.6 | 3.2 | 0.00 | 0.00 | 0.00 | 44 | 1012.3 |
| 20260508012906 | 29 | 266 | 6.4 | 8.0 | 0.00 | 0.00 | 0.00 | 43 | 1012.4 |
| 20260508012403 | 29 | 263 | 1.6 | 3.2 | 0.00 | 0.00 | 0.00 | 42 | 1012.2 |
| 20260508011901 | 29 | 288 | 6.4 | 8.0 | 0.00 | 0.00 | 0.00 | 42 | 1012.3 |
| 20260508011359 | 30 | 261 | 8.0 | 9.7 | 0.00 | 0.00 | 0.00 | 41 | 1012.3 |
| 20260508010855 | 30 | 263 | 4.8 | 6.4 | 0.00 | 0.00 | 0.00 | 41 | 1012.4 |
| 20260508010353 | 30 | 266 | 4.8 | 8.0 | 0.00 | 0.00 | 0.00 | 41 | 1012.3 |
| 20260508005850 | 30 | 280 | 3.2 | 6.4 | 0.00 | 0.00 | 0.00 | 41 | 1012.6 |
| 20260508005346 | 30 | 262 | 4.8 | 8.0 | 0.00 | 0.00 | 0.00 | 40 | 1012.4 |
| 20260508004843 | 30 | 271 | 3.2 | 8.0 | 0.00 | 0.00 | 0.00 | 42 | 1012.6 |
| 20260508004339 | 30 | 238 | 3.2 | 6.4 | 0.00 | 0.00 | 0.00 | 41 | 1012.5 |
| 20260508003835 | 30 | 282 | 4.8 | 6.4 | 0.00 | 0.00 | 0.00 | 41 | 1012.4 |
| 20260508003333 | 30 | 249 | 8.0 | 9.7 | 0.00 | 0.00 | 0.00 | 40 | 1012.6 |
| 20260508002830 | 30 | 274 | 6.4 | 9.7 | 0.00 | 0.00 | 0.00 | 39 | 1012.6 |
| 20260508002326 | 30 | 247 | 6.4 | 9.7 | 0.00 | 0.00 | 0.00 | 40 | 1012.6 |
| 20260508001823 | 30 | 249 | 6.4 | 9.7 | 0.00 | 0.00 | 0.00 | 40 | 1012.9 |
| 20260508001319 | 30 | 304 | 4.8 | 6.4 | 0.00 | 0.00 | 0.00 | 41 | 1012.6 |
| 20260508000815 | 30 | 302 | 3.2 | 3.2 | 0.00 | 0.00 | 0.00 | 41 | 1012.8 |
| 20260508000312 | 30 | 264 | 6.4 | 8.0 | 0.00 | 0.00 | 0.00 | 41 | 1012.8 |
| 20260507235808 | 30 | 266 | 6.4 | 8.0 | 0.00 | 0.00 | 0.00 | 40 | 1012.7 |
| 20260507235307 | 30 | 263 | 6.4 | 8.0 | 0.00 | 0.00 | 0.00 | 41 | 1012.8 |
| 20260507234803 | 30 | 282 | 6.4 | 9.7 | 0.00 | 0.00 | 0.00 | 41 | 1012.8 |
| 20260507234259 | 30 | 260 | 3.2 | 6.4 | 0.00 | 0.00 | 0.00 | 40 | 1013.1 |
| 20260507233755 | 30 | 263 | 3.2 | 6.4 | 0.00 | 0.00 | 0.00 | 41 | 1013.0 |
| 20260507233253 | 30 | 250 | 8.0 | 9.7 | 0.00 | 0.00 | 0.00 | 40 | 1013.0 |
| 20260507232751 | 29 | 257 | 4.8 | 8.0 | 0.00 | 0.00 | 0.00 | 42 | 1013.1 |
| 20260507232247 | 30 | 248 | 9.7 | 11.3 | 0.00 | 0.00 | 0.00 | 40 | 1013.2 |
| 20260507231744 | 29 | 243 | 4.8 | 8.0 | 0.00 | 0.00 | 0.00 | 41 | 1013.2 |
| 20260507231241 | 30 | 251 | 4.8 | 6.4 | 0.00 | 0.00 | 0.00 | 41 | 1013.0 |
| 20260507230737 | 30 | 273 | 8.0 | 9.7 | 0.00 | 0.00 | 0.00 | 41 | 1013.1 |
| 20260507230235 | 30 | 247 | 4.8 | 6.4 | 0.00 | 0.00 | 0.00 | 39 | 1013.3 |
| 20260507225734 | 29 | 289 | 3.2 | 3.2 | 0.00 | 0.00 | 0.00 | 41 | 1013.4 |
| 20260507225231 | 29 | 254 | 6.4 | 8.0 | 0.00 | 0.00 | 0.00 | 40 | 1013.5 |
| 20260507224727 | 30 | 269 | 4.8 | 6.4 | 0.00 | 0.00 | 0.00 | 39 | 1013.5 |
| 20260507224224 | 29 | 348 | 3.2 | 3.2 | 0.00 | 0.00 | 0.00 | 39 | 1013.6 |
| 20260507223720 | 28 | 231 | 4.8 | 6.4 | 0.00 | 0.00 | 0.00 | 40 | 1013.6 |
| 20260507223217 | 28 | 253 | 1.6 | 3.2 | 0.00 | 0.00 | 0.00 | 40 | 1013.8 |
| 20260507222714 | 29 | 258 | 4.8 | 8.0 | 0.00 | 0.00 | 0.00 | 39 | 1014.0 |
| 20260507222210 | 28 | 277 | 4.8 | 6.4 | 0.00 | 0.00 | 0.00 | 39 | 1013.8 |
| 20260507221707 | 29 | 247 | 4.8 | 8.0 | 0.00 | 0.00 | 0.00 | 40 | 1013.9 |
| 20260507221203 | 29 | 287 | 1.6 | 1.6 | 0.00 | 0.00 | 0.00 | 40 | 1014.0 |
| 20260507220700 | 29 | 286 | 3.2 | 3.2 | 0.00 | 0.00 | 0.00 | 40 | 1014.3 |
| 20260507220158 | 29 | 254 | 3.2 | 3.2 | 0.00 | 0.00 | 0.00 | 39 | 1014.3 |
| 20260507215654 | 28 | 233 | 1.6 | 1.6 | 0.00 | 0.00 | 0.00 | 40 | 1014.4 |
| 20260507215152 | 28 | 39 | 1.6 | 1.6 | 0.00 | 0.00 | 0.00 | 40 | 1014.4 |
| 20260507214649 | 29 | 75 | 1.6 | 3.2 | 0.00 | 0.00 | 0.00 | 38 | 1014.3 |
| 20260507214145 | 28 | 264 | 4.8 | 6.4 | 0.00 | 0.00 | 0.00 | 39 | 1014.5 |
| 20260507213641 | 28 | 260 | 4.8 | 8.0 | 0.00 | 0.00 | 0.00 | 40 | 1014.6 |
| 20260507213138 | 28 | 44 | 1.6 | 3.2 | 0.00 | 0.00 | 0.00 | 39 | 1014.7 |
| 20260507212634 | 28 | 267 | 1.6 | 1.6 | 0.00 | 0.00 | 0.00 | 39 | 1014.6 |
| 20260507212131 | 28 | 249 | 4.8 | 6.4 | 0.00 | 0.00 | 0.00 | 41 | 1015.0 |
| 20260507211628 | 28 | 42 | 1.6 | 1.6 | 0.00 | 0.00 | 0.00 | 41 | 1014.7 |
| 20260507211124 | 28 | 298 | 0.0 | 0.0 | 0.00 | 0.00 | 0.00 | 41 | 1014.9 |
| 20260507210622 | 28 | 178 | 4.8 | 6.4 | 0.00 | 0.00 | 0.00 | 39 | 1015.0 |
| 20260507210118 | 28 | 253 | 6.4 | 8.0 | 0.00 | 0.00 | 0.00 | 38 | 1015.0 |
| 20260507205615 | 28 | 107 | 1.6 | 1.6 | 0.00 | 0.00 | 0.00 | 39 | 1015.1 |
| 20260507205111 | 27 | 242 | 0.0 | 0.0 | 0.00 | 0.00 | 0.00 | 41 | 1015.3 |
| 20260507204607 | 27 | 250 | 3.2 | 3.2 | 0.00 | 0.00 | 0.00 | 41 | 1015.1 |
| 20260507204105 | 27 | 20 | 1.6 | 1.6 | 0.00 | 0.00 | 0.00 | 40 | 1015.1 |
| 20260507203603 | 28 | 240 | 3.2 | 3.2 | 0.00 | 0.00 | 0.00 | 42 | 1015.4 |
| 20260507203100 | 28 | 45 | 3.2 | 3.2 | 0.00 | 0.00 | 0.00 | 40 | 1015.4 |
| 20260507202555 | 27 | 341 | 0.0 | 1.6 | 0.00 | 0.00 | 0.00 | 41 | 1015.6 |
| 20260507202052 | 27 | 234 | 3.2 | 3.2 | 0.00 | 0.00 | 0.00 | 43 | 1015.4 |
| 20260507201547 | 27 | 255 | 6.4 | 9.7 | 0.00 | 0.00 | 0.00 | 46 | 1015.5 |
| 20260507201044 | 27 | 236 | 1.6 | 1.6 | 0.00 | 0.00 | 0.00 | 44 | 1015.7 |
| 20260507200540 | 27 | 37 | 3.2 | 3.2 | 0.00 | 0.00 | 0.00 | 41 | 1015.6 |
| 20260507200036 | 27 | 341 | 3.2 | 6.4 | 0.00 | 0.00 | 0.00 | 42 | 1015.6 |
| 20260507195533 | 27 | 12 | 6.4 | 8.0 | 0.00 | 0.00 | 0.00 | 43 | 1015.8 |
| 20260507195031 | 26 | 241 | 4.8 | 6.4 | 0.00 | 0.00 | 0.00 | 43 | 1015.7 |
| 20260507194527 | 26 | 247 | 4.8 | 6.4 | 0.00 | 0.00 | 0.00 | 46 | 1015.9 |
| 20260507194023 | 26 | 5 | 1.6 | 3.2 | 0.00 | 0.00 | 0.00 | 45 | 1016.1 |
| 20260507193520 | 27 | 273 | 3.2 | 3.2 | 0.00 | 0.00 | 0.00 | 44 | 1015.7 |
| 20260507193017 | 26 | 256 | 6.4 | 8.0 | 0.00 | 0.00 | 0.00 | 43 | 1016.0 |
| 20260507192513 | 26 | 66 | 0.0 | 1.6 | 0.00 | 0.00 | 0.00 | 44 | 1016.0 |
| 20260507192010 | 26 | 262 | 8.0 | 9.7 | 0.00 | 0.00 | 0.00 | 44 | 1016.1 |
| 20260507191506 | 26 | 312 | 1.6 | 1.6 | 0.00 | 0.00 | 0.00 | 45 | 1016.1 |
| 20260507191003 | 25 | 275 | 4.8 | 6.4 | 0.00 | 0.00 | 0.00 | 46 | 1016.4 |
| 20260507190500 | 26 | 337 | 1.6 | 1.6 | 0.00 | 0.00 | 0.00 | 46 | 1016.2 |
| 20260507185959 | 26 | 262 | 4.8 | 6.4 | 0.00 | 0.00 | 0.00 | 45 | 1016.3 |
| 20260507185456 | 26 | 31 | 0.0 | 1.6 | 0.00 | 0.00 | 0.00 | 46 | 1016.2 |
| 20260507184953 | 25 | 241 | 4.8 | 6.4 | 0.00 | 0.00 | 0.00 | 50 | 1016.4 |
| 20260507184451 | 25 | 226 | 3.2 | 3.2 | 0.00 | 0.00 | 0.00 | 49 | 1016.6 |
| 20260507183949 | 25 | 48 | 0.0 | 1.6 | 0.00 | 0.00 | 0.00 | 49 | 1016.9 |
| 20260507183445 | 25 | 336 | 0.0 | 1.6 | 0.00 | 0.00 | 0.00 | 51 | 1016.6 |
| 20260507182942 | 24 | 267 | 1.6 | 3.2 | 0.00 | 0.00 | 0.00 | 52 | 1016.8 |
| 20260507182438 | 25 | 297 | 1.6 | 1.6 | 0.00 | 0.00 | 0.00 | 52 | 1016.8 |
| 20260507181934 | 24 | 247 | 3.2 | 3.2 | 0.00 | 0.00 | 0.00 | 53 | 1016.6 |
| 20260507181430 | 23 | 29 | 1.6 | 1.6 | 0.00 | 0.00 | 0.00 | 51 | 1016.8 |
| 20260507180927 | 24 | 326 | 0.0 | 0.0 | 0.00 | 0.00 | 0.00 | 53 | 1016.9 |
| 20260507180424 | 24 | 238 | 1.6 | 1.6 | 0.00 | 0.00 | 0.00 | 53 | 1016.9 |
| 20260507175920 | 23 | 255 | 3.2 | 3.2 | 0.00 | 0.00 | 0.00 | 53 | 1016.9 |
| 20260507175417 | 23 | 269 | 1.6 | 1.6 | 0.00 | 0.00 | 0.00 | 55 | 1016.8 |
| 20260507174915 | 23 | 248 | 3.2 | 3.2 | 0.00 | 0.00 | 0.00 | 56 | 1017.0 |
| 20260507174412 | 23 | 244 | 3.2 | 3.2 | 0.00 | 0.00 | 0.00 | 56 | 1017.1 |
| 20260507173909 | 23 | 271 | 0.0 | 1.6 | 0.00 | 0.00 | 0.00 | 56 | 1016.9 |
| 20260507173406 | 22 | 254 | 1.6 | 1.6 | 0.00 | 0.00 | 0.00 | 57 | 1017.0 |
| 20260507172902 | 22 | 246 | 0.0 | 1.6 | 0.00 | 0.00 | 0.00 | 56 | 1017.0 |
| 20260507172359 | 22 | 285 | 4.8 | 6.4 | 0.00 | 0.00 | 0.00 | 57 | 1017.2 |
| 20260507171855 | 22 | 234 | 1.6 | 1.6 | 0.00 | 0.00 | 0.00 | 58 | 1017.2 |
| 20260507171352 | 22 | 288 | 4.8 | 6.4 | 0.00 | 0.00 | 0.00 | 58 | 1017.5 |
| 20260507170849 | 22 | 311 | 0.0 | 1.6 | 0.00 | 0.00 | 0.00 | 58 | 1017.2 |
| 20260507170345 | 22 | 327 | 3.2 | 3.2 | 0.00 | 0.00 | 0.00 | 58 | 1017.4 |
| 20260507165842 | 22 | 237 | 3.2 | 3.2 | 0.00 | 0.00 | 0.00 | 57 | 1017.3 |
| 20260507165337 | 22 | 286 | 0.0 | 1.6 | 0.00 | 0.00 | 0.00 | 58 | 1017.4 |
| 20260507164834 | 21 | 327 | 0.0 | 0.0 | 0.00 | 0.00 | 0.00 | 59 | 1017.3 |
| 20260507164331 | 21 | 265 | 1.6 | 3.2 | 0.00 | 0.00 | 0.00 | 58 | 1017.2 |
| 20260507163828 | 21 | 258 | 0.0 | 1.6 | 0.00 | 0.00 | 0.00 | 62 | 1017.3 |
| 20260507163325 | 21 | 280 | 1.6 | 3.2 | 0.00 | 0.00 | 0.00 | 62 | 1017.3 |
| 20260507162821 | 21 | 305 | 1.6 | 3.2 | 0.00 | 0.00 | 0.00 | 62 | 1017.2 |
| 20260507162317 | 20 | 308 | 1.6 | 1.6 | 0.00 | 0.00 | 0.00 | 63 | 1017.3 |
| 20260507161815 | 20 | 320 | 0.0 | 0.0 | 0.00 | 0.00 | 0.00 | 65 | 1017.3 |
| 20260507161311 | 20 | 271 | 4.8 | 6.4 | 0.00 | 0.00 | 0.00 | 65 | 1017.6 |
| 20260507160808 | 20 | 269 | 1.6 | 3.2 | 0.00 | 0.00 | 0.00 | 65 | 1017.4 |
| 20260507160304 | 20 | 285 | 3.2 | 3.2 | 0.00 | 0.00 | 0.00 | 65 | 1017.4 |
| 20260507155759 | 20 | 249 | 4.8 | 6.4 | 0.00 | 0.00 | 0.00 | 65 | 1017.4 |
| 20260507155256 | 19 | 280 | 0.0 | 1.6 | 0.00 | 0.00 | 0.00 | 67 | 1017.3 |
| 20260507154752 | 18 | 306 | 0.0 | 1.6 | 0.00 | 0.00 | 0.00 | 68 | 1017.4 |
| 20260507154250 | 18 | 6 | 0.0 | 0.0 | 0.00 | 0.00 | 0.00 | 67 | 1017.3 |
| 20260507153746 | 18 | 290 | 1.6 | 1.6 | 0.00 | 0.00 | 0.00 | 68 | 1017.5 |
| 20260507153243 | 18 | 308 | 1.6 | 1.6 | 0.00 | 0.00 | 0.00 | 69 | 1017.3 |
| 20260507152740 | 18 | 312 | 1.6 | 1.6 | 0.00 | 0.00 | 0.00 | 71 | 1017.3 |
| 20260507152236 | 17 | 280 | 1.6 | 1.6 | 0.00 | 0.00 | 0.00 | 72 | 1017.4 |
| 20260507151732 | 17 | 271 | 1.6 | 1.6 | 0.00 | 0.00 | 0.00 | 72 | 1017.5 |
| 20260507151228 | 17 | 339 | 1.6 | 1.6 | 0.00 | 0.00 | 0.00 | 71 | 1017.6 |
| 20260507150726 | 17 | 25 | 0.0 | 0.0 | 0.00 | 0.00 | 0.00 | 73 | 1017.4 |
| 20260507150222 | 17 | 25 | 0.0 | 0.0 | 0.00 | 0.00 | 0.00 | 74 | 1017.6 |
| 20260507145718 | 17 | 25 | 0.0 | 0.0 | 0.00 | 0.00 | 0.00 | 75 | 1017.3 |
| 20260507145215 | 16 | 27 | 0.0 | 0.0 | 0.00 | 0.00 | 0.00 | 75 | 1017.4 |
| 20260507144712 | 16 | 12 | 0.0 | 0.0 | 0.00 | 0.00 | 0.00 | 77 | 1017.4 |
| 20260507144210 | 16 | 12 | 0.0 | 0.0 | 0.00 | 0.00 | 0.00 | 79 | 1017.4 |
| 20260507143706 | 15 | 275 | 0.0 | 0.0 | 0.00 | 0.00 | 0.00 | 80 | 1017.4 |
| 20260507143203 | 15 | 283 | 1.6 | 1.6 | 0.00 | 0.00 | 0.00 | 80 | 1017.5 |
| 20260507142659 | 15 | 280 | 1.6 | 1.6 | 0.00 | 0.00 | 0.00 | 81 | 1017.7 |
| 20260507142155 | 15 | 279 | 0.0 | 0.0 | 0.00 | 0.00 | 0.00 | 82 | 1017.4 |
| 20260507141652 | 14 | 280 | 0.0 | 0.0 | 0.00 | 0.00 | 0.00 | 83 | 1017.3 |
| 20260507141149 | 14 | 281 | 1.6 | 1.6 | 0.00 | 0.00 | 0.00 | 83 | 1017.3 |
| 20260507140645 | 14 | 281 | 0.0 | 0.0 | 0.00 | 0.00 | 0.00 | 84 | 1017.3 |
| 20260507140143 | 14 | 283 | 0.0 | 1.6 | 0.00 | 0.00 | 0.00 | 84 | 1017.0 |
| 20260507135640 | 13 | 283 | 0.0 | 0.0 | 0.00 | 0.00 | 0.00 | 85 | 1016.9 |
| 20260507135137 | 13 | 283 | 0.0 | 0.0 | 0.00 | 0.00 | 0.00 | 86 | 1017.0 |
| 20260507134633 | 13 | 283 | 0.0 | 0.0 | 0.00 | 0.00 | 0.00 | 86 | 1017.2 |
| 20260507134130 | 13 | 275 | 1.6 | 1.6 | 0.00 | 0.00 | 0.00 | 86 | 1017.1 |
| 20260507133626 | 13 | 293 | 0.0 | 0.0 | 0.00 | 0.00 | 0.00 | 85 | 1016.8 |
| 20260507133123 | 13 | 292 | 0.0 | 0.0 | 0.00 | 0.00 | 0.00 | 85 | 1016.9 |
| 20260507132620 | 13 | 291 | 0.0 | 1.6 | 0.00 | 0.00 | 0.00 | 85 | 1017.2 |
| 20260507132116 | 13 | 2 | 0.0 | 0.0 | 0.00 | 0.00 | 0.00 | 85 | 1016.9 |
| 20260507131613 | 13 | 2 | 0.0 | 0.0 | 0.00 | 0.00 | 0.00 | 84 | 1016.9 |
| 20260507131111 | 13 | 2 | 0.0 | 0.0 | 0.00 | 0.00 | 0.00 | 84 | 1016.8 |
| 20260507130607 | 13 | 2 | 0.0 | 0.0 | 0.00 | 0.00 | 0.00 | 84 | 1016.7 |
| 20260507130106 | 13 | 2 | 0.0 | 0.0 | 0.00 | 0.00 | 0.00 | 84 | 1016.5 |
| 20260507125604 | 13 | 2 | 0.0 | 0.0 | 0.00 | 0.00 | 0.00 | 84 | 1016.7 |
| 20260507125101 | 13 | 2 | 0.0 | 0.0 | 0.00 | 0.00 | 0.00 | 84 | 1016.7 |
| 20260507124557 | 13 | 2 | 0.0 | 0.0 | 0.00 | 0.00 | 0.00 | 83 | 1016.7 |
| 20260507124055 | 13 | 40 | 0.0 | 0.0 | 0.00 | 0.00 | 0.00 | 83 | 1016.5 |
| 20260507123553 | 13 | 40 | 0.0 | 0.0 | 0.00 | 0.00 | 0.00 | 82 | 1016.7 |
| 20260507123050 | 13 | 40 | 0.0 | 0.0 | 0.00 | 0.00 | 0.00 | 82 | 1016.6 |
| 20260507122545 | 13 | 40 | 0.0 | 0.0 | 0.00 | 0.00 | 0.00 | 82 | 1016.7 |
| 20260507122041 | 13 | 40 | 0.0 | 0.0 | 0.00 | 0.00 | 0.00 | 82 | 1016.7 |
| 20260507121537 | 13 | 40 | 0.0 | 0.0 | 0.00 | 0.00 | 0.00 | 82 | 1016.5 |
| 20260507121033 | 13 | 40 | 0.0 | 0.0 | 0.00 | 0.00 | 0.00 | 82 | 1016.6 |
| 20260507120529 | 13 | 41 | 0.0 | 0.0 | 0.00 | 0.00 | 0.00 | 82 | 1016.5 |
| 20260507120026 | 13 | 41 | 0.0 | 0.0 | 0.00 | 0.00 | 0.00 | 82 | 1016.6 |
| 20260507115522 | 14 | 42 | 0.0 | 0.0 | 0.00 | 0.00 | 0.00 | 82 | 1016.4 |
| 20260507115018 | 14 | 48 | 0.0 | 0.0 | 0.00 | 0.00 | 0.00 | 82 | 1016.6 |
| 20260507114514 | 14 | 51 | 0.0 | 0.0 | 0.00 | 0.00 | 0.00 | 82 | 1016.5 |
| 20260507114012 | 14 | 51 | 0.0 | 0.0 | 0.00 | 0.00 | 0.00 | 82 | 1016.7 |
| 20260507113509 | 14 | 51 | 0.0 | 0.0 | 0.00 | 0.00 | 0.00 | 82 | 1016.6 |
| 20260507113006 | 14 | 51 | 0.0 | 0.0 | 0.00 | 0.00 | 0.00 | 83 | 1016.5 |
| 20260507112503 | 14 | 342 | 0.0 | 0.0 | 0.00 | 0.00 | 0.00 | 83 | 1016.8 |
| 20260507112000 | 14 | 336 | 0.0 | 0.0 | 0.00 | 0.00 | 0.00 | 83 | 1016.7 |
| 20260507111459 | 14 | 336 | 0.0 | 0.0 | 0.00 | 0.00 | 0.00 | 83 | 1016.6 |
| 20260507110953 | 15 | 336 | 0.0 | 0.0 | 0.00 | 0.00 | 0.00 | 83 | 1016.7 |
| 20260507110450 | 14 | 335 | 0.0 | 0.0 | 0.00 | 0.00 | 0.00 | 83 | 1016.7 |
| 20260507105946 | 14 | 334 | 0.0 | 0.0 | 0.00 | 0.00 | 0.00 | 83 | 1016.7 |
| 20260507105443 | 14 | 334 | 0.0 | 0.0 | 0.00 | 0.00 | 0.00 | 83 | 1016.6 |
| 20260507104940 | 14 | 334 | 0.0 | 0.0 | 0.00 | 0.00 | 0.00 | 83 | 1016.9 |
| 20260507104437 | 14 | 333 | 0.0 | 0.0 | 0.00 | 0.00 | 0.00 | 83 | 1016.6 |
| 20260507103933 | 14 | 333 | 0.0 | 0.0 | 0.00 | 0.00 | 0.00 | 82 | 1016.6 |
| 20260507103430 | 14 | 20 | 0.0 | 0.0 | 0.00 | 0.00 | 0.00 | 82 | 1016.6 |
| 20260507102926 | 14 | 21 | 0.0 | 0.0 | 0.00 | 0.00 | 0.00 | 81 | 1016.7 |
| 20260507102423 | 14 | 21 | 0.0 | 0.0 | 0.00 | 0.00 | 0.00 | 81 | 1016.7 |
| 20260507101919 | 14 | 21 | 0.0 | 0.0 | 0.00 | 0.00 | 0.00 | 80 | 1016.7 |
| 20260507101414 | 14 | 21 | 0.0 | 0.0 | 0.00 | 0.00 | 0.00 | 79 | 1016.8 |
| 20260507100911 | 15 | 21 | 0.0 | 0.0 | 0.00 | 0.00 | 0.00 | 79 | 1016.8 |
| 20260507100409 | 15 | 21 | 0.0 | 0.0 | 0.00 | 0.00 | 0.00 | 79 | 1016.8 |
| 20260507095907 | 15 | 21 | 0.0 | 0.0 | 0.00 | 0.00 | 0.00 | 79 | 1016.7 |
| 20260507095403 | 15 | 21 | 0.0 | 0.0 | 0.00 | 0.00 | 0.00 | 79 | 1016.7 |
| 20260507094901 | 15 | 16 | 0.0 | 0.0 | 0.00 | 0.00 | 0.00 | 78 | 1016.6 |
| 20260507094357 | 15 | 16 | 0.0 | 0.0 | 0.00 | 0.00 | 0.00 | 78 | 1016.7 |
| 20260507093854 | 15 | 16 | 0.0 | 0.0 | 0.00 | 0.00 | 0.00 | 78 | 1016.6 |
| 20260507093352 | 15 | 18 | 0.0 | 0.0 | 0.00 | 0.00 | 0.00 | 77 | 1016.8 |
| 20260507092850 | 15 | 18 | 0.0 | 0.0 | 0.00 | 0.00 | 0.00 | 77 | 1016.9 |
| 20260507092346 | 15 | 18 | 0.0 | 0.0 | 0.00 | 0.00 | 0.00 | 78 | 1016.8 |
| 20260507091843 | 16 | 23 | 1.6 | 1.6 | 0.00 | 0.00 | 0.00 | 78 | 1016.8 |
| 20260507091339 | 16 | 26 | 0.0 | 0.0 | 0.00 | 0.00 | 0.00 | 77 | 1017.0 |
| 20260507090835 | 16 | 352 | 0.0 | 0.0 | 0.00 | 0.00 | 0.00 | 75 | 1016.7 |
| 20260507090331 | 16 | 273 | 0.0 | 0.0 | 0.00 | 0.00 | 0.00 | 75 | 1016.9 |
| 20260507085828 | 16 | 273 | 0.0 | 0.0 | 0.00 | 0.00 | 0.00 | 75 | 1016.8 |
| 20260507085325 | 17 | 273 | 0.0 | 1.6 | 0.00 | 0.00 | 0.00 | 76 | 1017.0 |
| 20260507084823 | 17 | 278 | 1.6 | 3.2 | 0.00 | 0.00 | 0.00 | 76 | 1016.8 |
| 20260507084319 | 16 | 275 | 0.0 | 0.0 | 0.00 | 0.00 | 0.00 | 75 | 1016.9 |
| 20260507083816 | 16 | 269 | 0.0 | 0.0 | 0.00 | 0.00 | 0.00 | 75 | 1017.0 |
| 20260507083313 | 16 | 268 | 0.0 | 1.6 | 0.00 | 0.00 | 0.00 | 75 | 1017.1 |
| 20260507082809 | 16 | 281 | 0.0 | 0.0 | 0.00 | 0.00 | 0.00 | 76 | 1016.9 |
| 20260507082306 | 16 | 284 | 0.0 | 0.0 | 0.00 | 0.00 | 0.00 | 76 | 1017.0 |
| 20260507081802 | 16 | 284 | 0.0 | 0.0 | 0.00 | 0.00 | 0.00 | 75 | 1017.1 |
| 20260507081258 | 16 | 283 | 0.0 | 0.0 | 0.00 | 0.00 | 0.00 | 75 | 1017.1 |
| 20260507080755 | 16 | 283 | 0.0 | 0.0 | 0.00 | 0.00 | 0.00 | 74 | 1016.8 |
| 20260507080251 | 16 | 283 | 0.0 | 0.0 | 0.00 | 0.00 | 0.00 | 74 | 1017.1 |
| 20260507075746 | 16 | 280 | 0.0 | 0.0 | 0.00 | 0.00 | 0.00 | 75 | 1016.9 |
| 20260507075242 | 16 | 280 | 0.0 | 0.0 | 0.00 | 0.00 | 0.00 | 74 | 1017.0 |
| 20260507074739 | 17 | 280 | 0.0 | 0.0 | 0.00 | 0.00 | 0.00 | 73 | 1016.9 |
| 20260507074237 | 17 | 279 | 0.0 | 1.6 | 0.00 | 0.00 | 0.00 | 73 | 1016.9 |
| 20260507073733 | 17 | 276 | 1.6 | 1.6 | 0.00 | 0.00 | 0.00 | 73 | 1017.0 |
| 20260507073230 | 16 | 291 | 0.0 | 0.0 | 0.00 | 0.00 | 0.00 | 74 | 1017.0 |
| 20260507072728 | 17 | 291 | 0.0 | 0.0 | 0.00 | 0.00 | 0.00 | 75 | 1017.0 |
| 20260507072225 | 17 | 305 | 0.0 | 0.0 | 0.00 | 0.00 | 0.00 | 75 | 1017.1 |
| 20260507071723 | 17 | 305 | 0.0 | 0.0 | 0.00 | 0.00 | 0.00 | 74 | 1017.1 |
| 20260507071219 | 17 | 305 | 0.0 | 0.0 | 0.00 | 0.00 | 0.00 | 73 | 1017.0 |
| 20260507070716 | 17 | 307 | 0.0 | 0.0 | 0.00 | 0.00 | 0.00 | 73 | 1017.1 |
| 20260507070213 | 16 | 324 | 0.0 | 0.0 | 0.00 | 0.00 | 0.00 | 75 | 1017.0 |